Погода в Гёльмармаре

Турция     38°42′48″N   27°55′06″E
темп.,
°C
ветер,
м/с
пор.,
м/с
влажн.,
%
обл.,
%
осадки,
мм/ч
давл.,
гПа
погр.,
м
20 апреля, вт
вт2000:00+11св00870 0.0 101210
03:00+10вюв00870 0.0 101210
06:00+9ююв11870 0.0 101210
09:00+13зюз22681 0.1 1014385
12:00+17з464932 0.3 10141987
15:00+16зсз555076 0.3 10131007
18:00+16зсз76515 0.0 10131273
21:00+11зсз115918 0.0 101610
21 апреля, ср
ср2100:00+9ссз11620 0.0 101710
03:00+8ссв11690 0.0 101710
06:00+8всв11691 0.0 101710
09:00+12юв11525 0.0 1018353
12:00+16з223978 0.0 10181343
15:00+18зсз4435100 0.0 10171756
18:00+18з444080 0.0 10162027
21:00+13ссз22618 0.0 101817
22 апреля, чт
чт2200:00+10сз11723 0.0 102010
03:00+9с11751 0.0 102010
06:00+8св11770 0.0 102110
09:00+13зюз00610 0.0 1021360
12:00+17з11410 0.0 10211373
15:00+20з32331 0.0 10201828
18:00+19зсз22328 0.0 10191219
21:00+14сз11475 0.0 102010
23 апреля, пт
пт2300:00+13ссв115394 0.0 102010
03:00+12ююз0055100 0.0 101910
06:00+11вюв115784 0.0 101910
09:00+15юв114631 0.0 1019268
12:00+20зюз3331100 0.0 10191127
15:00+21зсз4535100 0.0 10191146
18:00+21з453960 0.0 10181149
21:00+15с22565 0.0 102020
24 апреля, сб
сб2400:00+14св2256100 0.0 101913
03:00+14всв116073 0.0 101811
06:00+13в2259100 0.0 101711
09:00+17ссз2252100 0.0 1017298
12:00+18з1154100 0.1 1018530
15:00+17ссз3466100 0.4 1017363
18:00+18ссз2466100 0.0 1016607
21:00+14с1287100 0.3 101645